CFG3MK LEPA-EDDS

Flight info

Callsign CFG3MK
Flight time 1h 39m
Altitude 36000
Route MEROS N853 LUMAS DCT NEVIX DCT ODIXU DCT ADITA DCT RAPED DCT PIGOS DCT EKSID DCT NOSTA DCT NOPMU DCT ASTIG DCT ABESI DCT UTAVO DCT ELMUR DCT RIPUS L613 DITON T163 ZUE T125 REUTL REUTL5A
Aircraft A21N/M-SBDE3FGHIJ1J4J7LORVWXYZ/SB2D1G1

Departure

Time 2026-05-05 07:11
Airport Palma de Mallorca Airport (LEPA)

Arrival

Time 2026-05-05 08:50
Airport Stuttgart Airport (EDDS)
Time Latitude Longitude Altitude Speed Heading
2026-05-05 06:34 39.54984 2.73390 29 ft 0 kts 167°
2026-05-05 07:00 39.54998 2.73386 31 ft 2 kts 167°
2026-05-05 07:01 39.55013 2.73381 31 ft 2 kts 167°
2026-05-05 07:01 39.55022 2.73379 32 ft 2 kts 165°
2026-05-05 07:01 39.55032 2.73366 31 ft 2 kts 104°
2026-05-05 07:01 39.55032 2.73357 30 ft 1 kts 83°
2026-05-05 07:02 39.55032 2.73352 30 ft 0 kts 89°
2026-05-05 07:04 39.55033 2.73363 29 ft 5 kts 81°
2026-05-05 07:04 39.55049 2.73421 31 ft 6 kts 63°
2026-05-05 07:05 39.55073 2.73472 35 ft 7 kts 59°
2026-05-05 07:05 39.55104 2.73538 41 ft 9 kts 58°
2026-05-05 07:05 39.55141 2.73616 46 ft 12 kts 58°
2026-05-05 07:05 39.55175 2.73714 46 ft 12 kts 95°
2026-05-05 07:06 39.55189 2.73816 45 ft 12 kts 26°
2026-05-05 07:06 39.55281 2.73768 42 ft 18 kts 329°
2026-05-05 07:06 39.55409 2.73666 32 ft 23 kts 329°
2026-05-05 07:06 39.55548 2.73557 23 ft 22 kts 328°
2026-05-05 07:07 39.55668 2.73535 18 ft 18 kts 53°
2026-05-05 07:07 39.55740 2.73685 14 ft 20 kts 59°
2026-05-05 07:07 39.55814 2.73843 13 ft 20 kts 59°
2026-05-05 07:07 39.55884 2.73991 15 ft 18 kts 59°
2026-05-05 07:08 39.55948 2.74127 18 ft 15 kts 59°
2026-05-05 07:08 39.56002 2.74242 20 ft 14 kts 59°
2026-05-05 07:08 39.56058 2.74360 18 ft 16 kts 59°
2026-05-05 07:08 39.56118 2.74450 15 ft 6 kts 21°
2026-05-05 07:09 39.56122 2.74451 15 ft 0 kts 16°
2026-05-05 07:09 39.56123 2.74452 15 ft 0 kts 16°
2026-05-05 07:10 39.56151 2.74451 15 ft 8 kts 345°
2026-05-05 07:10 39.56233 2.74385 15 ft 18 kts 309°
2026-05-05 07:10 39.56191 2.74193 16 ft 39 kts 239°
2026-05-05 07:10 39.55916 2.73612 12 ft 109 kts 238°
2026-05-05 07:11 39.55418 2.72560 8 ft 164 kts 238°
2026-05-05 07:11 39.54810 2.71261 559 ft 165 kts 238°
2026-05-05 07:11 39.54216 2.69988 1143 ft 170 kts 237°
2026-05-05 07:11 39.53592 2.68672 1772 ft 173 kts 237°
2026-05-05 07:12 39.52947 2.67328 2225 ft 185 kts 236°
2026-05-05 07:12 39.52239 2.65864 2590 ft 201 kts 237°
2026-05-05 07:12 39.51459 2.64249 2958 ft 218 kts 237°
2026-05-05 07:12 39.50623 2.62516 3284 ft 239 kts 237°
2026-05-05 07:13 39.49673 2.60737 3922 ft 245 kts 227°
2026-05-05 07:13 39.48369 2.59350 4704 ft 245 kts 212°
2026-05-05 07:13 39.46913 2.58231 5500 ft 245 kts 207°
2026-05-05 07:13 39.45266 2.57762 6200 ft 250 kts 175°
2026-05-05 07:14 39.43671 2.58621 6915 ft 258 kts 144°
2026-05-05 07:14 39.42553 2.60440 7586 ft 268 kts 116°
2026-05-05 07:14 39.42197 2.62829 8139 ft 281 kts 92°
2026-05-05 07:14 39.42260 2.65401 8568 ft 295 kts 91°
2026-05-05 07:15 39.42332 2.68095 9174 ft 301 kts 91°
2026-05-05 07:15 39.42387 2.70771 9826 ft 304 kts 91°
2026-05-05 07:15 39.42428 2.73509 10392 ft 310 kts 92°
2026-05-05 07:15 39.42458 2.76365 10694 ft 326 kts 92°
2026-05-05 07:16 39.42481 2.79367 10978 ft 341 kts 92°
2026-05-05 07:16 39.42504 2.82485 11428 ft 350 kts 92°
2026-05-05 07:16 39.42571 2.85619 12110 ft 352 kts 86°
2026-05-05 07:16 39.43329 2.88639 12610 ft 361 kts 59°
2026-05-05 07:17 39.44944 2.91108 13186 ft 362 kts 43°
2026-05-05 07:17 39.46812 2.93314 13733 ft 366 kts 40°
2026-05-05 07:17 39.48689 2.95522 14246 ft 371 kts 41°
2026-05-05 07:17 39.50561 2.97830 14792 ft 375 kts 43°
2026-05-05 07:18 39.52415 3.00214 15341 ft 378 kts 44°
2026-05-05 07:18 39.54280 3.02685 15859 ft 382 kts 44°
2026-05-05 07:18 39.56126 3.05173 16370 ft 386 kts 44°
2026-05-05 07:18 39.57980 3.07695 16864 ft 390 kts 45°
2026-05-05 07:19 39.59842 3.10243 17359 ft 393 kts 45°
2026-05-05 07:19 39.61724 3.12826 17841 ft 396 kts 45°
2026-05-05 07:19 39.63618 3.15432 18303 ft 400 kts 45°
2026-05-05 07:19 39.65518 3.18046 18751 ft 403 kts 44°
2026-05-05 07:20 39.67464 3.20727 19195 ft 407 kts 44°
2026-05-05 07:20 39.69395 3.23391 19621 ft 410 kts 44°
2026-05-05 07:20 39.71340 3.26076 20053 ft 413 kts 44°
2026-05-05 07:20 39.73315 3.28804 20473 ft 416 kts 44°
2026-05-05 07:21 39.75287 3.31532 20896 ft 419 kts 44°
2026-05-05 07:21 39.77286 3.34299 21312 ft 421 kts 44°
2026-05-05 07:21 39.79293 3.37080 21705 ft 424 kts 44°
2026-05-05 07:21 39.81311 3.39878 22095 ft 427 kts 44°
2026-05-05 07:22 39.83340 3.42695 22477 ft 430 kts 44°
2026-05-05 07:22 39.85405 3.45567 22863 ft 433 kts 44°
2026-05-05 07:22 39.87459 3.48423 23234 ft 435 kts 44°
2026-05-05 07:22 39.89539 3.51319 23609 ft 438 kts 44°
2026-05-05 07:23 39.91603 3.54194 23976 ft 441 kts 44°
2026-05-05 07:23 39.93707 3.57127 24334 ft 443 kts 44°
2026-05-05 07:23 39.95803 3.60053 24678 ft 446 kts 44°
2026-05-05 07:23 39.97919 3.63011 25004 ft 449 kts 44°
2026-05-05 07:24 40.00045 3.65983 25345 ft 452 kts 45°
2026-05-05 07:24 40.02216 3.69025 25647 ft 455 kts 45°
2026-05-05 07:24 40.04359 3.72028 25960 ft 457 kts 45°
2026-05-05 07:24 40.06524 3.75066 26271 ft 459 kts 45°
2026-05-05 07:25 40.08692 3.78109 26573 ft 462 kts 45°
2026-05-05 07:25 40.10877 3.81180 26852 ft 464 kts 45°
2026-05-05 07:25 40.13078 3.84278 27132 ft 467 kts 45°
2026-05-05 07:25 40.15277 3.87378 27402 ft 469 kts 45°
2026-05-05 07:26 40.17514 3.90532 27675 ft 471 kts 45°
2026-05-05 07:26 40.19726 3.93655 27956 ft 473 kts 45°
2026-05-05 07:26 40.21973 3.96832 28241 ft 475 kts 45°
2026-05-05 07:26 40.24209 3.99991 28494 ft 477 kts 45°
2026-05-05 07:27 40.26473 4.03197 28748 ft 480 kts 45°
2026-05-05 07:27 40.28732 4.06399 29008 ft 482 kts 45°
2026-05-05 07:27 40.30989 4.09601 29268 ft 484 kts 45°
2026-05-05 07:27 40.33281 4.12859 29523 ft 486 kts 45°
2026-05-05 07:28 40.35577 4.16121 29786 ft 488 kts 45°
2026-05-05 07:28 40.37854 4.19360 30029 ft 490 kts 45°
2026-05-05 07:28 40.40160 4.22644 30274 ft 492 kts 45°
2026-05-05 07:28 40.42477 4.25953 30530 ft 494 kts 45°
2026-05-05 07:29 40.44807 4.29259 30789 ft 495 kts 43°
2026-05-05 07:29 40.47338 4.32289 31029 ft 493 kts 35°
2026-05-05 07:29 40.50135 4.34834 31274 ft 490 kts 26°
2026-05-05 07:29 40.53166 4.36850 31520 ft 485 kts 17°
2026-05-05 07:30 40.56326 4.38284 31747 ft 480 kts
2026-05-05 07:30 40.62833 4.39943 32196 ft 478 kts
2026-05-05 07:30 40.66140 4.40660 32399 ft 481 kts
2026-05-05 07:31 40.69445 4.41395 32631 ft 482 kts
2026-05-05 07:31 40.72720 4.42147 32856 ft 484 kts
2026-05-05 07:31 40.76054 4.42931 33073 ft 485 kts
2026-05-05 07:31 40.79355 4.43717 33256 ft 487 kts
2026-05-05 07:32 40.82721 4.44524 33452 ft 489 kts
2026-05-05 07:32 40.86048 4.45325 33693 ft 489 kts
2026-05-05 07:32 40.89395 4.46133 33999 ft 488 kts
2026-05-05 07:32 40.92728 4.46939 34288 ft 487 kts
2026-05-05 07:33 40.96048 4.47746 34514 ft 487 kts
2026-05-05 07:33 40.99379 4.48554 34721 ft 487 kts
2026-05-05 07:33 41.02689 4.49355 34948 ft 486 kts
2026-05-05 07:33 41.05995 4.50158 35172 ft 485 kts
2026-05-05 07:34 41.09336 4.50973 35373 ft 485 kts
2026-05-05 07:34 41.12653 4.51784 35572 ft 484 kts
2026-05-05 07:34 41.15953 4.52591 35754 ft 484 kts
2026-05-05 07:34 41.19280 4.53404 35903 ft 485 kts
2026-05-05 07:35 41.25858 4.55012 35952 ft 484 kts
2026-05-05 07:35 41.32490 4.56637 35962 ft 483 kts
2026-05-05 07:36 41.39074 4.58250 35959 ft 483 kts
2026-05-05 07:36 41.45671 4.59868 35962 ft 483 kts
2026-05-05 07:37 41.52279 4.61494 35963 ft 483 kts
2026-05-05 07:37 41.58885 4.63119 35956 ft 483 kts
2026-05-05 07:38 41.65471 4.64745 35960 ft 483 kts
2026-05-05 07:38 41.72032 4.66653 35955 ft 487 kts 10°
2026-05-05 07:39 41.78466 4.69593 35959 ft 493 kts 18°
2026-05-05 07:39 41.84808 4.73230 35965 ft 494 kts 19°
2026-05-05 07:40 41.91077 4.76891 35960 ft 494 kts 19°
2026-05-05 07:40 41.97374 4.80547 35960 ft 493 kts 19°
2026-05-05 07:41 42.03661 4.84186 35956 ft 494 kts 19°
2026-05-05 07:41 42.09976 4.87849 35960 ft 494 kts 19°
2026-05-05 07:42 42.16242 4.91489 35952 ft 494 kts 19°
2026-05-05 07:42 42.22563 4.95169 35951 ft 494 kts 19°
2026-05-05 07:43 42.28838 4.98827 35957 ft 495 kts 19°
2026-05-05 07:43 42.35131 5.02505 35958 ft 494 kts 19°
2026-05-05 07:44 42.41443 5.06299 35957 ft 496 kts 22°
2026-05-05 07:44 42.47506 5.10703 35952 ft 499 kts 25°
2026-05-05 07:45 42.53575 5.15319 35957 ft 499 kts 25°
2026-05-05 07:45 42.59588 5.19881 35950 ft 498 kts 25°
2026-05-05 07:46 42.65622 5.24449 35947 ft 498 kts 25°
2026-05-05 07:46 42.71695 5.29053 35947 ft 499 kts 25°
2026-05-05 07:47 42.77750 5.33652 35941 ft 499 kts 25°
2026-05-05 07:47 42.83787 5.38249 35938 ft 499 kts 25°
2026-05-05 07:48 42.89813 5.42844 35936 ft 499 kts 25°
2026-05-05 07:48 42.95868 5.47475 35936 ft 498 kts 25°
2026-05-05 07:49 43.01897 5.52099 35932 ft 499 kts 26°
2026-05-05 07:49 43.07649 5.57445 35930 ft 502 kts 36°
2026-05-05 07:50 43.12709 5.63995 35931 ft 504 kts 47°
2026-05-05 07:50 43.17005 5.71563 35931 ft 504 kts 54°
2026-05-05 07:51 43.20650 5.79688 35932 ft 503 kts 64°
2026-05-05 07:51 43.23336 5.88501 35937 ft 502 kts 74°
2026-05-05 07:52 43.24990 5.97733 35938 ft 499 kts 82°
2026-05-05 07:52 43.26231 6.07005 35940 ft 498 kts 82°
2026-05-05 07:53 43.27485 6.16343 35944 ft 498 kts 82°
2026-05-05 07:53 43.28759 6.25662 35948 ft 498 kts 82°
2026-05-05 07:54 43.30033 6.34973 35945 ft 498 kts 82°
2026-05-05 07:54 43.31293 6.44232 35955 ft 497 kts 82°
2026-05-05 07:55 43.32552 6.53537 35957 ft 497 kts 82°
2026-05-05 07:55 43.33806 6.62860 35958 ft 498 kts 82°
2026-05-05 07:56 43.35054 6.72182 35955 ft 497 kts 82°
2026-05-05 07:56 43.36429 6.81418 35953 ft 498 kts 77°
2026-05-05 07:57 43.38742 6.90375 35955 ft 500 kts 66°
2026-05-05 07:57 43.42099 6.98699 35949 ft 500 kts 56°
2026-05-05 07:58 43.46157 7.06470 35957 ft 500 kts 53°
2026-05-05 07:58 43.50268 7.14189 35953 ft 499 kts 53°
2026-05-05 07:59 43.54327 7.21934 35951 ft 499 kts 54°
2026-05-05 07:59 43.58344 7.29652 35950 ft 499 kts 54°
2026-05-05 08:00 43.62362 7.37407 35958 ft 499 kts 54°
2026-05-05 08:00 43.66385 7.45209 35951 ft 498 kts 54°
2026-05-05 08:01 43.70361 7.52933 35950 ft 497 kts 54°
2026-05-05 08:01 43.74364 7.60731 35941 ft 497 kts 54°
2026-05-05 08:02 43.78367 7.68473 35944 ft 496 kts 52°
2026-05-05 08:02 43.82855 7.75748 35940 ft 495 kts 44°
2026-05-05 08:03 43.87931 7.82123 35936 ft 492 kts 36°
2026-05-05 08:03 43.93412 7.87715 35938 ft 490 kts 31°
2026-05-05 08:04 43.99287 7.92452 35947 ft 487 kts 23°
2026-05-05 08:04 44.05368 7.96412 35945 ft 485 kts 21°
2026-05-05 08:05 44.11517 8.00328 35947 ft 485 kts 21°
2026-05-05 08:05 44.17643 8.04267 35945 ft 485 kts 21°
2026-05-05 08:06 44.23792 8.08248 35950 ft 486 kts 22°
2026-05-05 08:06 44.29877 8.12202 35945 ft 485 kts 22°
2026-05-05 08:07 44.35970 8.16171 35941 ft 485 kts 22°
2026-05-05 08:07 44.42097 8.20175 35946 ft 485 kts 22°
2026-05-05 08:08 44.48202 8.24172 35953 ft 485 kts 22°
2026-05-05 08:08 44.54318 8.28187 35958 ft 484 kts 22°
2026-05-05 08:09 44.60403 8.32187 35963 ft 485 kts 22°
2026-05-05 08:09 44.66524 8.36223 35964 ft 485 kts 22°
2026-05-05 08:10 44.72594 8.40232 35969 ft 484 kts 22°
2026-05-05 08:10 44.78679 8.44263 35967 ft 484 kts 22°
2026-05-05 08:11 44.84779 8.48313 35969 ft 484 kts 23°
2026-05-05 08:11 44.90866 8.52362 35974 ft 484 kts 23°
2026-05-05 08:12 44.96967 8.56430 35974 ft 483 kts 23°
2026-05-05 08:12 45.03026 8.60483 35979 ft 484 kts 23°
2026-05-05 08:13 45.09114 8.64563 35982 ft 483 kts 23°
2026-05-05 08:13 45.15169 8.68631 35979 ft 483 kts 24°
2026-05-05 08:14 45.21234 8.72714 35979 ft 483 kts 24°
2026-05-05 08:14 45.27294 8.76802 35983 ft 482 kts 24°
2026-05-05 08:15 45.33326 8.80882 35983 ft 482 kts 24°
2026-05-05 08:15 45.39399 8.84998 35989 ft 481 kts 24°
2026-05-05 08:16 45.45422 8.89090 35992 ft 481 kts 24°
2026-05-05 08:16 45.51472 8.93208 35987 ft 481 kts 25°
2026-05-05 08:17 45.57534 8.97310 35987 ft 481 kts 23°
2026-05-05 08:17 45.63770 9.00673 35989 ft 479 kts 15°
2026-05-05 08:18 45.70207 9.02905 35987 ft 477 kts
2026-05-05 08:18 45.76778 9.04094 35991 ft 476 kts
2026-05-05 08:19 45.83361 9.04987 35991 ft 476 kts
2026-05-05 08:19 45.89945 9.05923 35994 ft 476 kts
2026-05-05 08:20 45.96552 9.06701 36002 ft 476 kts 359°
2026-05-05 08:20 46.03163 9.06450 36006 ft 474 kts 352°
2026-05-05 08:21 46.09690 9.05392 36006 ft 473 kts 351°
2026-05-05 08:21 46.16234 9.04277 36005 ft 473 kts 351°
2026-05-05 08:22 46.22771 9.03379 35999 ft 475 kts 352°
2026-05-05 08:22 46.29371 9.02525 36006 ft 475 kts 352°
2026-05-05 08:23 46.35922 9.01647 35996 ft 475 kts 352°
2026-05-05 08:23 46.42513 9.00760 35981 ft 477 kts 352°
2026-05-05 08:24 46.49089 8.99888 35976 ft 477 kts 353°
2026-05-05 08:24 46.55721 8.99001 35958 ft 477 kts 353°
2026-05-05 08:25 46.59023 8.98555 35734 ft 480 kts 353°
2026-05-05 08:25 46.62331 8.98109 35196 ft 480 kts 353°
2026-05-05 08:25 46.65667 8.97654 34617 ft 482 kts 353°
2026-05-05 08:25 46.68975 8.97205 33928 ft 484 kts 353°
2026-05-05 08:26 46.72327 8.96749 33249 ft 486 kts 353°
2026-05-05 08:26 46.75708 8.96288 32555 ft 487 kts 354°
2026-05-05 08:26 46.79088 8.95827 31870 ft 488 kts 353°
2026-05-05 08:26 46.82445 8.95369 31182 ft 489 kts 353°
2026-05-05 08:27 46.85856 8.94903 30486 ft 490 kts 354°
2026-05-05 08:27 46.89222 8.94445 29804 ft 491 kts 354°
2026-05-05 08:27 46.92644 8.93981 29116 ft 491 kts 354°
2026-05-05 08:27 46.96009 8.93522 28435 ft 493 kts 353°
2026-05-05 08:28 46.99420 8.93054 27813 ft 493 kts 354°
2026-05-05 08:28 47.02823 8.92584 27225 ft 489 kts 354°
2026-05-05 08:28 47.06169 8.92120 26689 ft 484 kts 354°
2026-05-05 08:28 47.09500 8.91655 26156 ft 481 kts 354°
2026-05-05 08:29 47.12824 8.91193 25618 ft 476 kts 353°
2026-05-05 08:29 47.16111 8.90738 25091 ft 472 kts 353°
2026-05-05 08:29 47.19358 8.90289 24559 ft 468 kts 354°
2026-05-05 08:30 47.25792 8.89410 23487 ft 461 kts 355°
2026-05-05 08:30 47.28962 8.89515 22987 ft 458 kts
2026-05-05 08:30 47.32093 8.90459 22446 ft 454 kts 17°
2026-05-05 08:30 47.35048 8.91907 21946 ft 451 kts 20°
2026-05-05 08:31 47.38005 8.93486 21430 ft 448 kts 20°
2026-05-05 08:31 47.40935 8.95053 20915 ft 445 kts 20°
2026-05-05 08:31 47.43827 8.96572 20398 ft 442 kts 20°
2026-05-05 08:31 47.46704 8.98065 19906 ft 439 kts 20°
2026-05-05 08:32 47.49569 8.99545 19378 ft 436 kts 20°
2026-05-05 08:32 47.52434 9.01024 18861 ft 434 kts 20°
2026-05-05 08:32 47.55288 9.02497 18365 ft 431 kts 20°
2026-05-05 08:32 47.58101 9.03951 17903 ft 428 kts 20°
2026-05-05 08:33 47.60875 9.05386 17376 ft 425 kts 20°
2026-05-05 08:33 47.63666 9.06832 16887 ft 421 kts 20°
2026-05-05 08:33 47.66384 9.08242 16391 ft 417 kts 20°
2026-05-05 08:33 47.69123 9.09716 15897 ft 413 kts 24°
2026-05-05 08:34 47.71498 9.11952 15399 ft 405 kts 44°
2026-05-05 08:34 47.73264 9.15165 14914 ft 397 kts 60°
2026-05-05 08:34 47.74681 9.18635 14437 ft 393 kts 62°
2026-05-05 08:34 47.76067 9.22113 13953 ft 390 kts 62°
2026-05-05 08:35 47.77457 9.25545 13449 ft 386 kts 61°
2026-05-05 08:35 47.79117 9.28613 12991 ft 387 kts 41°
2026-05-05 08:35 47.81501 9.30471 12702 ft 388 kts 16°
2026-05-05 08:35 47.84182 9.30958 12475 ft 389 kts
2026-05-05 08:36 47.86869 9.31026 12229 ft 386 kts
2026-05-05 08:36 47.89572 9.31062 12075 ft 385 kts
2026-05-05 08:36 47.92245 9.31149 11949 ft 384 kts
2026-05-05 08:36 47.94883 9.31285 11831 ft 383 kts
2026-05-05 08:37 47.97548 9.31453 11718 ft 382 kts
2026-05-05 08:37 48.00202 9.31640 11590 ft 380 kts
2026-05-05 08:37 48.02827 9.31833 11477 ft 380 kts
2026-05-05 08:37 48.05468 9.32012 11354 ft 378 kts
2026-05-05 08:38 48.08056 9.31384 11207 ft 377 kts 339°
2026-05-05 08:38 48.10377 9.29669 11098 ft 365 kts 330°
2026-05-05 08:38 48.12534 9.27784 10972 ft 351 kts 329°
2026-05-05 08:38 48.14604 9.25983 10847 ft 338 kts 330°
2026-05-05 08:39 48.16604 9.24304 10722 ft 325 kts 331°
2026-05-05 08:39 48.18575 9.22700 10594 ft 314 kts 332°
2026-05-05 08:39 48.20456 9.21201 10469 ft 303 kts 332°
2026-05-05 08:39 48.22311 9.19742 10319 ft 302 kts 332°
2026-05-05 08:40 48.24121 9.18328 10087 ft 300 kts 333°
2026-05-05 08:40 48.25969 9.16891 9843 ft 299 kts 333°
2026-05-05 08:40 48.27823 9.15451 9565 ft 295 kts 333°
2026-05-05 08:40 48.29615 9.14061 9315 ft 289 kts 333°
2026-05-05 08:41 48.31398 9.12677 9059 ft 283 kts 333°
2026-05-05 08:41 48.33121 9.11338 8808 ft 277 kts 333°
2026-05-05 08:41 48.34817 9.10019 8569 ft 271 kts 333°
2026-05-05 08:41 48.36455 9.08743 8344 ft 267 kts 333°
2026-05-05 08:42 48.38104 9.07459 8119 ft 266 kts 333°
2026-05-05 08:42 48.39748 9.06178 7892 ft 266 kts 333°
2026-05-05 08:42 48.41401 9.04889 7667 ft 264 kts 333°
2026-05-05 08:42 48.43035 9.03614 7437 ft 263 kts 333°
2026-05-05 08:43 48.44645 9.02356 7210 ft 262 kts 333°
2026-05-05 08:43 48.46263 9.01092 6975 ft 261 kts 333°
2026-05-05 08:43 48.47860 8.99842 6711 ft 259 kts 333°
2026-05-05 08:43 48.49457 8.98593 6431 ft 258 kts 333°
2026-05-05 08:44 48.51042 8.97352 6158 ft 256 kts 333°
2026-05-05 08:44 48.52623 8.96114 5890 ft 255 kts 333°
2026-05-05 08:44 48.54204 8.94876 5643 ft 253 kts 334°
2026-05-05 08:44 48.55791 8.93770 5396 ft 249 kts 339°
2026-05-05 08:45 48.57402 8.92924 5190 ft 242 kts 343°
2026-05-05 08:45 48.58999 8.92209 4990 ft 235 kts 344°
2026-05-05 08:45 48.60521 8.91561 4853 ft 225 kts 349°
2026-05-05 08:45 48.62014 8.91670 4761 ft 208 kts 22°
2026-05-05 08:46 48.63100 8.93014 4673 ft 203 kts 53°
2026-05-05 08:46 48.63746 8.94914 4557 ft 202 kts 68°
2026-05-05 08:46 48.64207 8.96922 4374 ft 199 kts 71°
2026-05-05 08:46 48.64599 8.98865 4111 ft 193 kts 72°
2026-05-05 08:47 48.64964 9.00793 3858 ft 190 kts 73°
2026-05-05 08:47 48.65323 9.02725 3614 ft 189 kts 73°
2026-05-05 08:47 48.65675 9.04614 3372 ft 188 kts 73°
2026-05-05 08:47 48.66037 9.06550 3124 ft 190 kts 72°
2026-05-05 08:48 48.66388 9.08423 2868 ft 182 kts 72°
2026-05-05 08:48 48.66722 9.10201 2650 ft 168 kts 72°
2026-05-05 08:48 48.67031 9.11841 2414 ft 158 kts 73°
2026-05-05 08:48 48.67334 9.13447 2215 ft 157 kts 72°
2026-05-05 08:49 48.67630 9.15020 2020 ft 156 kts 72°
2026-05-05 08:49 48.67930 9.16611 1814 ft 155 kts 72°
2026-05-05 08:49 48.68221 9.18177 1616 ft 154 kts 72°
2026-05-05 08:49 48.68516 9.19727 1395 ft 153 kts 72°
2026-05-05 08:50 48.68807 9.21248 1261 ft 141 kts 72°
2026-05-05 08:50 48.69044 9.22474 1223 ft 93 kts 71°
2026-05-05 08:50 48.69156 9.23085 1215 ft 32 kts 73°
2026-05-05 08:50 48.69259 9.23200 1214 ft 18 kts 345°
2026-05-05 08:51 48.69364 9.23151 1215 ft 15 kts 335°
2026-05-05 08:51 48.69405 9.23035 1217 ft 10 kts 250°
2026-05-05 08:51 48.69389 9.22932 1219 ft 9 kts 253°
2026-05-05 08:51 48.69367 9.22818 1220 ft 14 kts 253°
2026-05-05 08:52 48.69338 9.22663 1222 ft 14 kts 255°
2026-05-05 08:52 48.69312 9.22518 1224 ft 13 kts 253°
2026-05-05 08:52 48.69286 9.22386 1226 ft 12 kts 253°
2026-05-05 08:52 48.69261 9.22259 1228 ft 11 kts 254°
2026-05-05 08:53 48.69239 9.22137 1230 ft 13 kts 254°
2026-05-05 08:53 48.69214 9.22003 1233 ft 12 kts 255°
2026-05-05 08:53 48.69190 9.21878 1236 ft 13 kts 253°
2026-05-05 08:53 48.69159 9.21719 1241 ft 17 kts 254°
2026-05-05 08:54 48.69127 9.21547 1246 ft 15 kts 254°
2026-05-05 08:54 48.69100 9.21403 1251 ft 14 kts 253°
2026-05-05 08:54 48.69070 9.21248 1255 ft 15 kts 254°
2026-05-05 08:54 48.69039 9.21084 1260 ft 16 kts 254°
2026-05-05 08:55 48.69006 9.20910 1266 ft 17 kts 256°
2026-05-05 08:55 48.68973 9.20742 1272 ft 14 kts 253°
2026-05-05 08:55 48.68986 9.20592 1275 ft 16 kts 308°
2026-05-05 08:55 48.69057 9.20468 1279 ft 14 kts 289°
2026-05-05 08:56 48.69044 9.20331 1283 ft 11 kts 254°
2026-05-05 08:56 48.69024 9.20216 1287 ft 12 kts 254°
2026-05-05 08:56 48.68997 9.20086 1291 ft 13 kts 248°
2026-05-05 08:56 48.68952 9.19958 1295 ft 14 kts 239°
2026-05-05 08:57 48.68898 9.19826 1297 ft 14 kts 239°
2026-05-05 08:57 48.68868 9.19702 1300 ft 10 kts 253°
2026-05-05 08:57 48.68849 9.19612 1303 ft 7 kts 239°
2026-05-05 08:57 48.68814 9.19605 1302 ft 4 kts 167°
2026-05-05 08:58 48.68788 9.19617 1301 ft 1 kts 164°
2026-05-05 08:58 48.68787 9.19617 1301 ft 0 kts 164°